Location: Carlingford
(46.7848°N, 67.7474°W)
Time: 02:24:52
(UTC+00:00)

N. Korean satellite - Pass Details

Date: 06 December 2022
Orbit: 408 x 444 km, 97.3° (Epoch: 28 January)

Event Time Altitude Azimuth Distance (km) Brightness Sun altitude
Rises 21:58:27 0° 208° (SSW) 2,463 10.9 -12.4°
Reaches altitude 10° 22:01:10 10° 233° (SW) 1,607 10.5 -12.8°
Maximum altitude 22:03:13 15° 269° (W) 1,347 9.9 -13.1°
Drops below altitude 10° 22:05:16 10° 305° (NW) 1,629 9.7 -13.5°
Sets 22:08:04 0° 330° (NNW) 2,518 10.4 -13.9°
